This is the latest recevied weather packets stored in our database for station/object KN4AN. If no packets are shown the sender has not sent any weather packets the latest 10 day(s).
| Time | Temp. | Humidity | Pressure | Rain* | Wind** | Luminosity | Snow |
|---|---|---|---|---|---|---|---|
| 1788578376 | 22.78° C | 79% | 1015.9 hPa | 0 mm | - | 0 W/m² | - |
| 1788578072 | 23.33° C | 79% | 1015.9 hPa | 0 mm | - | 0 W/m² | - |
| 1788577767 | 23.33° C | 77% | 1015.9 hPa | 0 mm | - | 0 W/m² | - |
| 1788577463 | 23.89° C | 76% | 1015.9 hPa | 0 mm | - | 0 W/m² | - |
| 1788577161 | 23.89° C | 75% | 1015.9 hPa | 0 mm | - | 0 W/m² | - |
| 1788576857 | 23.89° C | 74% | 1016.1 hPa | 0 mm | - | 0 W/m² | - |
| 1788576554 | 23.89° C | 74% | 1016.2 hPa | 0 mm | - | 0 W/m² | - |
| 1788576248 | 23.89° C | 75% | 1015.9 hPa | 0 mm | - | 0 W/m² | - |
| 1788575944 | 23.89° C | 74% | 1015.8 hPa | 0 mm | - | 0 W/m² | - |
| 1788575639 | 23.89° C | 73% | 1015.7 hPa | 0 mm | - | 0 W/m² | - |
| 1788575338 | 23.89° C | 73% | 1015.7 hPa | 0 mm | - | 0 W/m² | - |
| 1788575034 | 23.89° C | 74% | 1015.5 hPa | 0 mm | - | 0 W/m² | - |
| 1788574734 | 23.33° C | 75% | 1015.5 hPa | 0 mm | - | 0 W/m² | - |
| 1788574428 | 23.33° C | 78% | 1015.4 hPa | 0 mm | - | 0 W/m² | - |
| 1788574124 | 23.33° C | 76% | 1015.2 hPa | 0 mm | - | 0 W/m² | - |
| 1788573818 | 23.89° C | 76% | 1014.9 hPa | 0 mm | - | 0 W/m² | - |
| 1788573518 | 23.89° C | 77% | 1014.7 hPa | 0 mm | - | 0 W/m² | - |
| 1788573217 | 23.89° C | 76% | 1014.7 hPa | 0 mm | - | 0 W/m² | - |
| 1788572917 | 24.44° C | 74% | 1014.5 hPa | 0 mm | - | 0 W/m² | - |
| 1788572612 | 25° C | 72% | 1014.3 hPa | 0 mm | - | 0 W/m² | - |
| 1788572307 | 25° C | 69% | 1014.2 hPa | 0 mm | - | 0 W/m² | - |
| 1788572004 | 25° C | 68% | 1014.1 hPa | 0 mm | - | 0 W/m² | - |
| 1788571698 | 25° C | 68% | 1014 hPa | 0 mm | - | 0 W/m² | - |
| 1788571394 | 25.56° C | 67% | 1013.7 hPa | 0 mm | - | 0 W/m² | - |
| 1788571091 | 25.56° C | 67% | 1013.9 hPa | 0 mm | - | 0 W/m² | - |
* Rain latest hour (hover to see other rain measurements)
** Current wind speed in m/s (hover to see current wind gust speed)